Regional Weather Roundup
Issued by NWS

Home | Current Version | Previous Version | Text Only | Print | Product List | Glossary On
Versions: 1 2 3 4 5 6 7 8 9 10 11 12 13 14 15 16 17 18 19 20 21 22 23 24 25 26 27 28 29 30 31 32 33 34 35 36 37 38 39 40 41 42 43 44 45 46 47 48 49 50
000
ASUS44 KOUN 032200
RWROK

WEATHER ROUNDUP FOR OKLAHOMA
NATIONAL WEATHER SERVICE NORMAN OK
500 PM CDT WED JUN 03 2015

NOTE: "FAIR" INDICATES FEW OR NO CLOUDS BELOW 12,000 FEET WITH NO
      SIGNIFICANT WEATHER AND/OR OBSTRUCTIONS TO VISIBILITY.

OKZ001>007-009>012-014-015-017-032300-
NORTHWEST OKLAHOMA AND THE PANHANDLE

CITY           SKY/WX    TMP DP  RH WIND       PRES   REMARKS
GAGE           SUNNY     89  64  43 S25G33    29.81S HX  90
GUYMON         SUNNY     92  58  31 W6        29.80F HX  91
ENID/WOODRING  MOSUNNY   91  66  43 S20G28    29.80F HX  94
$$

OKZ016-021>023-033>039-044-045-032300-
SOUTHWEST OKLAHOMA

CITY           SKY/WX    TMP DP  RH WIND       PRES   REMARKS
LAWTON/REGL    SUNNY     90  62  39 S18G25    29.84F HX  90
LAWTON/FT SILL SUNNY     89  67  47 SE22G28   29.83F HX  91
FREDERICK      SUNNY     91  63  39 S23       29.81F HX  92
CLINTON        SUNNY     92  62  36 S23G35    29.85S HX  92
HOBART         SUNNY     91  63  39 S21G30    29.84S HX  92
$$

OKZ018>020-024>031-032300-
CENTRAL OKLAHOMA

CITY           SKY/WX    TMP DP  RH WIND       PRES   REMARKS
OKLAHOMA CITY  MOSUNNY   88  66  48 S21G26    29.87F HX  90
OKC/WILEY POST MOSUNNY   87  66  49 S20G29    29.87S
STILLWATER     MOSUNNY   88  67  49 S17G26    29.83F HX  91
GUTHRIE        MOSUNNY   89  67  47 S14       29.85F HX  92
$$

OKZ008-013-054>072-032300-
NORTHEAST OKLAHOMA

CITY           SKY/WX    TMP DP  RH WIND       PRES   REMARKS
TULSA          PTSUNNY   87  68  52 S16G24    29.84F HX  90
TULSA/JONES    MOSUNNY   89  66  46 S12G24    29.87F HX  91
PONCA CITY     SUNNY     89  68  49 S9G23     29.82S HX  93
BARTLESVILLE   MOSUNNY   87  70  56 SE13G23   29.86F HX  92
MUSKOGEE       MOSUNNY   85  67  54 SE13      29.92F
$$

OKZ032-040>043-046>053-073>077-032300-
SOUTH CENTRAL/SOUTHEAST OKLAHOMA

CITY           SKY/WX    TMP DP  RH WIND       PRES   REMARKS
MCALESTER      MOSUNNY   84  67  56 S5        29.91F
$$




USA.gov is the U.S. government's official web portal to all federal, state and local government web resources and services.